Wind_Speed
31 30 30 30 25 22 21 17 15 26 11 12 8 10 10 7 5 5 4 6 8 7 7 5 3 1 3 4 6 8 11 13 12 10 9 10 10 10 12 14 17 19 21 23
36 29 35 39 33 27 21 20 16 33 24 13 10 14 11 9 7 6 5 8 11 8 7 5 3 2 3 4 7 9 10 10 8 7 8 9 10 13 16 18 21 23 22 22
40 33 43 45 35 24 17 24 20 14 27 20 17 14 11 11 10 9 8 8 10 12 9 6 5 4 4 5 7 7 7 6 7 7 9 11 13 15 17 18 19 18 22 23
42 35 42 32 34 32 29 23 26 14 16 21 8 12 13 12 10 10 8 8 12 12 10 8 6 4 5 6 5 5 5 5 6 8 9 11 14 15 16 17 16 19 23 23
41 44 34 23 28 35 39 20 11 19 17 20 20 15 17 13 8 8 10 10 12 12 11 9 6 5 4 4 4 4 4 5 7 8 9 10 11 13 17 19 16 22 23 22
42 44 38 28 17 26 17 15 14 28 14 31 21 19 17 12 7 8 11 10 11 12 11 8 7 5 3 2 4 4 5 6 8 10 12 12 14 18 20 18 17 23 25 22
40 44 48 34 24 20 24 25 21 24 25 29 20 13 13 13 9 9 11 11 10 13 11 9 7 5 4 3 5 6 7 8 11 12 15 17 21 25 19 19 21 23 29 26
56 39 40 35 28 33 26 20 33 19 26 28 24 23 23 16 12 9 9 10 10 12 13 11 9 6 5 5 7 8 10 13 17 18 20 23 23 17 17 19 22 24 28 32
59 57 46 41 33 32 28 25 21 29 22 27 28 26 27 16 15 13 10 6 9 11 13 15 12 9 7 8 9 9 13 16 17 20 21 21 16 18 20 24 25 26 30 33
58 55 54 53 46 42 28 31 24 26 32 30 34 29 31 19 18 17 11 6 5 8 12 14 14 13 10 10 9 9 14 16 17 21 20 18 19 23 25 26 27 29 35 37
58 57 49 53 55 46 29 42 31 36 41 46 35 39 35 25 26 19 14 12 8 9 12 15 15 16 14 13 10 10 13 15 16 18 17 18 21 23 25 27 30 32 35 37
58 59 57 55 55 50 34 26 27 35 39 21 31 46 41 33 27 19 15 14 13 15 15 16 16 17 18 16 12 13 14 15 17 17 20 24 25 25 27 29 32 35 35 36
42 55 58 54 54 51 45 28 28 36 42 39 40 35 29 26 27 17 17 19 16 18 19 18 20 18 18 18 17 17 15 14 14 18 23 28 30 32 33 33 35 35 36 36
36 44 51 51 43 58 50 43 36 25 37 51 39 35 36 29 24 20 18 21 22 21 19 18 18 18 17 17 19 19 17 18 21 25 28 27 31 31 32 33 37 39 39 39
45 51 51 54 56 48 56 47 38 27 24 27 42 44 36 24 20 23 24 25 23 22 16 16 15 15 16 17 18 18 21 23 25 26 26 27 28 33 36 38 37 38 41 43
57 55 55 50 48 50 58 61 55 41 30 33 30 26 29 21 23 29 26 26 23 21 14 13 12 11 11 15 17 21 27 27 24 25 26 32 32 36 40 46 46 42 40 40
61 46 50 49 38 40 47 54 61 53 45 34 40 27 27 32 32 33 30 28 26 26 20 20 22 17 15 17 19 22 24 27 27 27 33 34 43 43 42 45 46 48 43 41
58 53 42 39 41 37 42 45 47 49 48 39 38 38 37 39 38 36 33 29 29 26 29 27 22 22 27 28 25 24 24 27 31 35 39 43 41 37 36 43 46 48 42 42
53 48 48 44 39 39 39 44 49 52 55 52 47 43 41 36 40 44 41 39 34 31 29 27 26 33 34 30 34 34 27 27 33 39 43 45 47 45 32 40 46 47 42 39
51 51 49 47 45 42 40 42 46 55 54 46 47 46 44 39 42 46 47 44 39 36 35 38 40 41 39 39 39 40 39 37 39 43 44 45 37 32 37 42 41 43 43 39
47 48 47 46 46 45 42 41 47 55 48 46 49 48 48 43 40 44 45 44 39 45 43 42 47 43 45 34 39 41 42 46 49 50 49 48 49 57 46 38 35 39 40 39
42 43 44 46 48 46 46 44 45 43 41 51 51 49 48 46 33 40 44 49 52 48 41 41 46 32 33 37 40 39 42 48 58 61 56 55 54 34 36 43 36 39 39 41
40 41 43 46 49 47 46 43 40 42 45 46 43 36 35 39 38 44 44 34 41 37 28 31 35 33 38 51 47 46 52 55 61 53 66 58 58 33 40 49 35 36 42 42
39 41 44 47 48 46 43 40 43 48 48 44 42 41 35 35 34 33 33 33 41 40 40 36 37 38 46 52 48 53 52 57 56 60 46 41 49 37 41 46 39 41 43 49
41 41 43 46 46 44 44 47 46 47 46 45 44 43 44 45 45 44 41 36 34 37 41 44 46 46 50 53 53 59 59 64 43 39 37 34 37 38 41 45 41 43 49 51
42 43 44 44 44 47 47 47 46 43 40 39 38 37 41 44 48 49 46 43 41 40 44 51 50 52 54 55 58 63 48 48 49 43 45 44 46 43 45 48 43 44 47 51
47 47 47 47 45 49 45 43 41 38 38 37 34 32 32 34 38 36 37 41 42 48 52 49 50 51 47 56 44 41 51 55 51 51 53 49 47 48 46 51 47 46 49 55
Wind_Direction
235 204 196 213 222 234 248 187 184 152 237 261 216 208 220 214 215 190 202 209 209 197 199 199 208 342 356 354 1 5 2 356 351 358 5 9 4 359 351 347 345 341 334 327
212 225 239 205 205 192 238 249 186 153 174 212 210 209 211 205 213 225 217 235 229 216 210 219 241 272 311 335 351 348 346 346 353 2 7 5 2 357 352 349 348 344 342 338
211 218 246 215 190 188 206 234 263 208 175 184 211 209 192 198 208 229 228 243 244 235 229 228 243 268 301 320 324 332 346 354 357 359 356 354 351 348 348 345 345 353 355 338
210 225 230 207 195 184 190 215 245 265 187 181 189 231 199 211 231 236 228 255 248 237 231 237 250 269 290 306 317 340 353 348 347 346 345 342 345 346 346 342 347 1 353 338
214 208 226 209 188 188 189 186 216 235 233 179 191 221 215 220 225 231 218 237 248 236 231 236 243 256 281 306 326 337 333 332 334 333 329 334 334 339 347 350 350 359 353 340
219 212 214 196 227 174 204 194 180 237 228 171 206 210 210 213 215 219 210 225 242 234 231 228 233 240 254 279 307 312 311 321 324 315 312 317 333 342 347 355 353 359 359 351
204 216 208 196 190 223 215 190 189 222 252 187 209 215 199 211 209 212 219 222 236 242 239 232 229 236 257 280 293 304 300 305 308 315 324 334 339 340 343 358 352 349 352 351
205 204 210 191 201 216 220 202 189 218 230 196 169 198 220 215 225 225 233 244 247 259 256 244 239 242 255 281 292 294 312 329 335 334 336 336 340 353 2 1 357 350 350 348
216 216 207 186 193 209 199 226 201 185 214 212 212 206 219 212 232 242 236 259 270 272 269 270 260 251 255 273 283 304 329 328 337 342 344 343 345 353 1 360 355 350 347 342
215 215 213 198 192 200 191 211 210 221 194 218 208 202 228 216 233 237 234 250 286 276 271 273 269 258 258 266 278 315 322 324 338 339 346 351 348 352 358 357 353 349 345 342
216 214 212 204 198 198 197 203 183 217 211 210 204 220 219 223 230 237 238 240 268 296 286 281 264 262 260 265 285 304 309 322 335 340 340 342 345 348 350 351 351 349 348 345
216 214 217 210 200 199 185 199 219 208 232 202 193 215 212 213 222 224 227 249 265 284 281 272 268 264 267 270 283 289 298 315 325 330 341 341 340 344 346 346 348 348 346 342
227 221 217 218 207 191 197 188 207 231 229 236 210 219 195 200 210 216 221 237 254 272 272 272 270 268 270 272 281 287 294 306 324 334 341 344 345 343 341 343 344 345 344 339
191 202 213 213 213 196 199 200 210 222 219 228 208 231 171 192 208 216 214 235 253 257 264 270 266 263 265 266 278 279 290 303 318 322 328 334 340 340 339 339 340 342 341 337
195 206 209 210 209 197 196 195 198 213 226 213 227 243 193 183 200 205 208 230 243 238 243 253 252 256 259 273 273 285 296 308 312 319 325 330 331 331 335 335 338 340 339 335
207 206 207 207 210 204 199 200 203 204 210 251 243 235 187 187 212 207 216 229 243 241 241 238 247 268 280 282 291 295 300 307 313 317 319 325 329 329 330 333 331 335 337 332
210 206 208 209 208 205 209 210 209 205 209 212 227 210 207 214 216 215 215 226 234 230 236 244 253 263 280 289 305 300 295 300 307 318 323 313 320 317 319 324 327 328 331 331
215 210 206 205 205 203 203 207 212 210 209 221 221 203 211 213 218 222 224 225 221 227 236 247 258 264 276 284 295 305 306 301 304 314 316 315 313 324 326 324 320 322 328 330
216 216 213 213 209 204 206 208 207 205 211 211 216 211 215 218 222 221 223 227 233 237 245 249 256 262 266 271 277 287 297 307 309 308 305 313 321 316 319 319 316 319 327 329
210 213 214 211 214 213 211 210 212 210 220 216 213 213 219 223 224 224 224 227 234 240 245 247 251 256 255 258 267 274 284 292 292 295 299 300 312 324 315 312 317 320 326 326
211 211 212 211 212 213 212 214 211 221 221 209 211 214 221 223 230 228 222 223 233 236 234 237 242 265 264 266 269 274 282 287 289 287 289 290 291 305 309 308 319 321 322 324
209 211 210 209 211 212 212 216 221 221 213 210 212 216 228 226 235 230 220 226 229 238 258 255 251 276 279 272 267 295 300 302 305 298 291 295 303 309 306 305 321 315 323 319
204 205 207 209 211 212 213 216 212 209 203 207 211 220 226 231 238 246 213 229 242 249 264 275 269 267 267 269 279 285 289 291 287 293 296 291 288 312 304 311 299 312 320 315
204 206 206 206 210 211 213 209 208 201 202 205 211 213 217 223 234 237 238 238 242 252 261 270 257 265 265 273 284 285 287 290 282 294 315 313 316 319 299 309 300 299 310 314
202 205 203 205 208 208 203 200 200 204 207 213 215 220 225 227 230 233 239 245 244 249 260 257 254 269 279 282 283 291 292 293 306 319 319 312 303 305 300 309 303 298 302 299
200 201 201 203 206 202 201 202 204 208 213 218 225 234 235 236 237 238 239 242 243 244 246 252 253 263 268 268 270 280 307 308 304 314 311 305 302 296 305 307 300 298 302 305
196 200 203 204 203 201 202 202 204 209 214 223 227 236 241 239 234 231 236 239 238 235 239 261 270 269 279 281 295 298 296 297 304 302 300 300 299 298 301 304 303 294 302 299
Height
5885 5887 5883 5896 5902 5905 5901 5905 5899 5907 5916 5916 5918 5921 5923 5926 5928 5930 5932 5934 5937 5938 5940 5941 5941 5941 5940 5940 5940 5939 5939 5938 5937 5936 5935 5934 5933 5932 5930 5928 5926 5923 5920 5916
5877 5882 5875 5885 5894 5891 5908 5902 5893 5894 5911 5913 5917 5920 5922 5925 5927 5930 5932 5934 5936 5938 5939 5940 5940 5940 5940 5940 5940 5940 5939 5938 5937 5936 5936 5934 5933 5931 5929 5926 5923 5920 5916 5913
5867 5880 5867 5877 5885 5894 5906 5896 5900 5902 5908 5913 5915 5919 5921 5924 5927 5929 5931 5933 5935 5937 5938 5939 5940 5940 5940 5940 5940 5939 5938 5938 5937 5936 5935 5934 5932 5930 5928 5925 5922 5918 5914 5909
5862 5868 5864 5879 5882 5887 5895 5897 5901 5899 5903 5908 5914 5919 5920 5922 5925 5928 5930 5932 5934 5936 5936 5938 5939 5939 5939 5939 5938 5938 5938 5937 5936 5935 5934 5932 5931 5929 5925 5922 5918 5914 5910 5906
5852 5857 5866 5868 5875 5879 5890 5895 5898 5895 5901 5906 5912 5916 5917 5920 5924 5926 5928 5931 5933 5934 5935 5937 5937 5938 5938 5938 5938 5937 5937 5936 5935 5934 5932 5930 5929 5926 5922 5918 5915 5912 5907 5903
5845 5849 5857 5871 5873 5878 5885 5893 5898 5889 5895 5898 5909 5911 5915 5918 5922 5924 5927 5930 5932 5933 5935 5936 5937 5937 5937 5937 5937 5936 5936 5935 5934 5932 5930 5928 5926 5923 5919 5915 5912 5908 5904 5899
5835 5842 5853 5865 5875 5876 5882 5895 5899 5897 5893 5892 5907 5911 5914 5916 5920 5922 5925 5928 5930 5932 5934 5935 5935 5935 5936 5936 5935 5935 5934 5933 5931 5930 5928 5926 5924 5920 5916 5913 5909 5905 5901 5897
5827 5836 5846 5861 5871 5876 5884 5887 5892 5890 5894 5893 5901 5914 5912 5914 5917 5921 5924 5927 5928 5931 5933 5934 5934 5934 5934 5934 5934 5933 5932 5931 5929 5927 5926 5923 5920 5916 5914 5911 5907 5903 5898 5894
5821 5831 5843 5855 5863 5872 5879 5882 5885 5890 5893 5899 5905 5910 5907 5913 5916 5920 5922 5925 5927 5929 5931 5933 5933 5933 5933 5932 5932 5931 5931 5929 5927 5925 5923 5920 5917 5914 5911 5907 5903 5901 5897 5891
5814 5821 5832 5845 5854 5860 5865 5869 5883 5886 5889 5894 5900 5903 5902 5910 5914 5918 5921 5923 5924 5927 5929 5930 5932 5931 5930 5930 5930 5929 5928 5926 5925 5922 5919 5917 5915 5912 5908 5905 5902 5898 5894 5887
5803 5813 5821 5834 5844 5852 5856 5861 5867 5876 5877 5880 5889 5893 5899 5904 5909 5914 5917 5919 5922 5924 5926 5928 5929 5929 5929 5928 5928 5927 5925 5924 5922 5920 5917 5914 5912 5908 5904 5901 5897 5893 5888 5883
5794 5804 5812 5823 5838 5848 5851 5857 5859 5867 5868 5856 5877 5883 5892 5897 5903 5908 5912 5916 5918 5920 5922 5924 5926 5926 5927 5926 5925 5924 5923 5921 5919 5917 5914 5912 5908 5905 5901 5897 5892 5888 5882 5877
5784 5794 5806 5816 5827 5841 5848 5852 5855 5860 5868 5874 5876 5880 5887 5894 5897 5902 5906 5911 5915 5917 5918 5921 5922 5923 5923 5923 5922 5921 5920 5918 5916 5914 5911 5908 5905 5901 5898 5893 5888 5882 5877 5871
5770 5780 5794 5807 5821 5835 5843 5846 5850 5852 5857 5864 5870 5841 5863 5886 5890 5896 5902 5908 5911 5913 5915 5917 5918 5918 5918 5918 5919 5918 5916 5915 5913 5910 5908 5905 5902 5898 5893 5889 5883 5876 5871 5865
5762 5774 5788 5798 5807 5820 5832 5839 5845 5850 5852 5856 5864 5869 5873 5878 5885 5893 5897 5902 5906 5909 5911 5913 5913 5914 5914 5914 5914 5914 5912 5911 5909 5906 5904 5901 5897 5895 5891 5886 5880 5872 5865 5858
5758 5769 5781 5791 5801 5814 5820 5828 5834 5844 5851 5848 5850 5860 5868 5875 5883 5888 5892 5896 5901 5906 5908 5909 5910 5911 5911 5911 5911 5911 5909 5907 5905 5902 5898 5895 5891 5887 5881 5876 5871 5868 5862 5854
5756 5768 5777 5788 5799 5808 5817 5822 5827 5836 5843 5849 5852 5861 5867 5873 5879 5882 5886 5891 5896 5901 5903 5905 5906 5907 5908 5907 5907 5905 5904 5901 5900 5898 5894 5889 5886 5882 5876 5870 5865 5861 5855 5849
5756 5766 5775 5784 5793 5801 5807 5816 5826 5832 5836 5843 5847 5855 5860 5866 5874 5878 5883 5886 5890 5894 5897 5900 5902 5902 5903 5902 5901 5899 5898 5897 5894 5891 5888 5882 5878 5875 5869 5865 5859 5853 5849 5840
5754 5762 5771 5780 5788 5796 5803 5809 5815 5821 5825 5833 5839 5848 5856 5861 5866 5870 5874 5878 5883 5887 5893 5895 5896 5895 5895 5894 5893 5892 5891 5891 5888 5884 5880 5876 5871 5866 5861 5857 5851 5845 5841 5834
5745 5755 5764 5774 5782 5791 5797 5804 5811 5814 5818 5830 5836 5842 5847 5853 5857 5861 5866 5872 5879 5883 5884 5887 5887 5885 5886 5884 5883 5882 5881 5881 5880 5874 5873 5869 5866 5860 5855 5850 5843 5837 5831 5826
5742 5750 5759 5768 5775 5783 5791 5797 5802 5804 5815 5824 5830 5835 5840 5846 5850 5854 5858 5863 5870 5867 5871 5873 5873 5875 5875 5875 5873 5875 5872 5869 5868 5866 5860 5856 5853 5852 5848 5841 5835 5828 5822 5817
5735 5745 5753 5761 5768 5776 5782 5789 5794 5802 5811 5817 5822 5827 5831 5838 5844 5848 5851 5854 5856 5855 5861 5863 5866 5867 5868 5866 5865 5866 5863 5861 5858 5854 5850 5846 5843 5838 5833 5831 5826 5821 5813 5809
5729 5738 5746 5755 5762 5769 5776 5782 5788 5795 5802 5808 5814 5820 5824 5828 5833 5835 5836 5843 5847 5850 5853 5857 5859 5858 5857 5852 5854 5853 5852 5849 5843 5842 5839 5836 5831 5825 5823 5819 5815 5811 5806 5801
5726 5734 5741 5749 5756 5764 5771 5777 5784 5790 5797 5802 5807 5812 5817 5822 5825 5828 5832 5834 5838 5843 5846 5847 5849 5848 5844 5843 5843 5840 5841 5838 5833 5832 5827 5823 5818 5814 5812 5809 5804 5800 5795 5792
5720 5728 5736 5744 5751 5758 5765 5771 5777 5784 5790 5795 5800 5805 5809 5813 5817 5821 5824 5828 5832 5836 5840 5838 5836 5833 5834 5835 5833 5831 5829 5829 5826 5819 5813 5813 5809 5804 5802 5799 5793 5788 5785 5781
5718 5725 5732 5739 5747 5753 5759 5765 5771 5777 5784 5789 5792 5795 5798 5802 5805 5811 5816 5819 5822 5825 5828 5826 5827 5826 5826 5825 5821 5820 5818 5817 5814 5807 5806 5803 5798 5795 5791 5786 5782 5780 5775 5770
5714 5721 5728 5735 5740 5747 5753 5760 5767 5772 5777 5781 5783 5787 5790 5793 5796 5801 5804 5808 5811 5812 5813 5816 5818 5817 5814 5814 5805 5803 5808 5807 5799 5796 5794 5789 5786 5781 5776 5773 5769 5765 5762 5758